SCP
0 0 0 0 0 0 0 0 0 0 0 0 0 0 0 0 0 0 0 0 1 2 3 3 5 5 4 3 3 3 2 2 3 1 1 1 1 1 2 1 0 0 4
0 0 0 0 0 0 0 0 0 0 0 0 0 0 0 0 0 0 0 0 0 0 1 3 3 6 5 4 4 3 3 3 2 2 2 1 1 1 0 1 1 1 3
0 0 0 0 0 0 0 0 0 0 0 0 0 0 0 0 0 0 0 1 1 2 2 2 3 3 2 4 4 4 3 3 4 3 2 1 1 1 2 1 1 1 4
0 0 0 0 0 0 0 0 0 0 0 0 0 0 0 0 0 0 0 0 0 1 1 2 2 3 3 3 3 4 3 3 3 3 2 1 1 1 1 2 3 2 3
0 0 0 0 0 0 0 0 0 0 0 0 0 0 0 0 0 0 0 0 0 0 0 1 1 1 2 2 2 2 2 2 2 3 2 2 2 1 1 1 1 1 0
0 0 0 0 0 0 0 0 0 0 0 0 0 0 0 0 0 0 0 0 0 0 0 0 0 1 1 1 2 2 2 2 3 3 2 2 2 1 1 1 1 1 1
0 0 0 0 0 0 0 0 0 0 0 0 0 0 0 0 0 0 0 0 0 0 0 0 1 1 1 1 1 1 1 2 2 3 2 2 2 2 2 1 1 1 0
0 0 0 0 0 0 0 0 0 0 0 0 0 0 0 0 0 0 0 0 0 0 0 0 0 0 0 0 1 1 1 2 2 1 2 2 2 2 2 1 1 1 0
0 0 0 0 0 0 0 0 0 0 0 0 0 0 0 0 0 0 0 0 0 0 0 0 0 0 0 0 1 0 1 1 1 1 1 2 1 2 2 2 1 1 1
0 0 0 0 0 0 0 0 0 0 0 0 0 0 0 0 0 0 0 0 0 0 0 0 0 0 0 0 0 0 0 1 1 1 1 1 1 2 2 2 2 1 1
0 0 0 0 0 0 0 0 0 0 0 0 0 0 0 0 0 0 0 0 0 0 0 0 0 0 0 0 0 0 0 1 1 1 1 1 1 2 2 1 0 0 0
0 0 0 0 0 0 0 0 0 0 0 0 0 0 0 0 0 0 0 0 0 0 0 0 0 0 0 0 0 0 0 0 0 1 0 0 1 2 1 0 0 0 0
0 0 0 0 0 0 0 0 0 0 0 0 0 0 0 0 0 0 0 0 0 0 0 0 0 0 0 0 0 0 0 0 1 1 0 0 1 0 0 0 0 0 0
0 0 0 0 0 0 0 0 0 0 0 0 0 0 0 0 0 0 0 0 0 0 0 0 0 0 0 0 0 0 0 0 1 1 0 0 0 0 0 0 0 0 0
0 0 0 0 0 0 0 0 0 0 0 0 0 0 0 0 0 0 0 0 0 0 0 0 0 0 0 0 0 0 0 0 0 0 0 0 0 0 0 0 0 0 0
0 0 0 0 0 0 0 0 0 0 0 0 0 0 0 0 0 0 0 0 0 0 0 0 0 -0 0 0 0 0 0 0 0 0 0 0 0 0 0 0 0 0 0
0 0 0 0 0 0 0 0 0 0 0 0 0 0 0 0 -0 0 0 0 0 0 0 0 0 0 0 0 0 0 0 0 0 0 0 0 0 0 0 0 0 0 0
0 0 0 0 0 0 0 0 0 0 0 0 0 0 0 0 0 0 -0 -0 -0 -0 -0 -0 -0 -0 -0 0 0 0 0 0 0 0 0 0 0 0 0 0 0 0 0
0 0 0 0 0 0 0 0 0 0 0 -0 0 0 -0 -0 -0 -0 -0 -0 -0 -0 -0 -0 -0 -0 -0 -0 -0 0 0 0 0 0 0 0 0 0 0 0 0 -0 -0
0 0 0 0 0 0 0 0 0 0 0 0 0 -0 -0 -0 -0 -0 -0 0 0 -0 0 -0 -0 -0 -0 -0 -0 -0 0 0 0 0 0 0 0 0 0 0 0 -0 -0
0 0 0 0 0 0 0 0 0 0 0 0 -0 -0 -0 -0 -0 -0 0 0 -0 0 -0 -0 -0 -0 -0 -0 -0 -0 0 0 0 0 0 0 0 0 0 0 0 0 0
0 0 0 0 0 0 0 0 0 0 0 -0 -0 -0 -0 -0 -0 -0 -0 -0 -0 -0 -0 -0 -0 -0 -0 -0 -0 -0 -0 0 0 0 0 0 0 0 0 0 0 -0 -0
0 0 0 0 0 0 0 0 0 0 0 0 0 -0 -0 -0 -0 -0 -0 -0 -0 -0 -0 -0 -0 -0 0 0 -0 -0 -0 0 0 0 -0 -0 -0 0 0 0 0 -0 0
0 0 0 0 0 0 0 0 0 0 0 -0 0 0 0 0 -0 -0 -0 -0 -0 -0 -0 -0 0 0 0 0 0 0 0 0 0 -0 0 -0 0 0 0 0 0 0 0
0 0 0 0 0 0 0 0 0 0 -0 0 0 0 0 0 -0 -0 0 -0 -0 0 0 0 -0 0 0 0 0 0 0 0 0 0 0 0 0 0 0 0 0 0 0
0 0 0 0 0 0 0 0 0 0 0 -0 -0 -0 0 0 0 0 0 -0 -0 -0 -0 -0 -0 -0 0 0 -0 -0 0 0 0 0 0 0 0 0 0 0 0 0 0
Wind_Speed_500mb
13 19 23 27 26 34 42 46 50 49 52 48 43 38 42 45 47 50 49 41 39 50 56 65 47 53 56 57 52 50 56 59 54 50 57 65 62 65 51 60 61 60 63
14 23 27 28 31 33 42 39 46 49 52 52 49 44 49 49 50 51 47 54 60 52 47 51 67 57 53 63 70 62 52 57 58 61 59 50 60 66 68 70 72 62 65
12 24 30 26 29 38 36 46 38 44 52 50 44 47 49 50 44 38 43 44 45 44 47 53 56 69 76 64 60 56 65 70 65 59 56 32 46 57 57 59 77 77 65
22 28 33 35 40 38 41 30 41 50 52 51 49 57 60 61 52 53 53 49 51 51 57 54 40 53 68 73 81 66 65 66 68 67 59 68 62 55 43 36 37 61 71
25 30 31 37 37 36 40 39 45 49 46 53 51 55 56 64 65 72 65 57 65 60 60 57 62 67 53 68 70 78 67 67 68 68 69 72 59 67 71 61 66 59 56
30 30 35 38 32 43 39 42 42 50 53 47 50 54 57 54 62 73 78 80 66 58 54 57 52 56 59 69 67 74 74 75 66 74 65 64 65 68 65 63 66 55 61
34 42 44 40 47 42 40 40 45 48 43 55 66 62 66 73 78 75 71 76 75 66 59 52 54 52 50 56 61 73 74 76 78 75 74 68 71 68 64 59 68 56 46
34 36 39 46 47 46 39 38 42 44 57 66 65 59 64 68 69 75 74 76 79 82 79 75 73 72 61 51 52 56 68 74 79 81 83 76 77 75 67 61 54 53 52
34 41 38 41 44 43 43 43 42 50 57 63 64 71 76 83 90 85 83 86 88 84 81 73 75 76 66 64 61 70 59 70 74 82 86 79 75 70 63 58 60 58 54
37 39 46 45 42 45 49 48 56 57 64 72 83 92 85 77 80 80 82 82 83 86 85 81 78 70 77 73 67 55 74 65 69 76 84 81 73 62 58 56 64 58 53
40 42 43 44 49 48 47 54 58 69 76 79 89 87 82 80 81 81 76 74 75 73 73 70 72 74 69 66 66 74 62 70 71 71 76 78 66 57 52 47 52 57 49
46 45 51 56 59 51 51 57 66 76 75 80 91 83 81 81 84 75 71 68 67 69 73 74 78 75 69 64 62 63 71 69 75 71 69 72 61 55 55 53 59 50 42
43 45 51 55 52 54 57 59 66 76 80 89 87 85 81 79 70 72 73 71 71 70 68 69 71 73 71 69 64 61 64 67 62 63 61 63 58 56 55 58 48 38 39
43 49 51 50 56 55 58 64 78 86 91 85 83 83 78 69 69 68 65 62 60 65 65 68 67 65 66 61 59 59 61 60 51 48 54 55 58 55 55 41 34 28 29
50 50 51 57 58 66 68 74 72 88 85 80 75 74 70 65 64 62 57 58 53 54 48 44 45 49 48 47 52 49 45 53 52 53 51 53 49 52 36 34 34 33 31
51 51 55 54 57 62 74 66 83 97 77 69 71 65 61 62 59 55 52 40 39 39 28 21 20 22 35 41 38 47 40 43 46 43 44 38 30 28 35 36 35 33 31
47 52 52 51 58 59 61 82 98 79 61 67 62 58 59 58 51 43 36 26 22 21 21 14 21 37 36 35 35 40 38 43 43 39 37 29 28 30 33 39 31 20 17
49 47 48 52 51 59 77 95 81 62 58 57 61 55 57 50 42 29 19 11 5 8 13 13 16 22 28 40 25 35 36 39 41 42 38 33 36 32 28 27 24 20 32
50 44 47 50 54 72 86 82 63 55 58 59 58 51 47 40 27 21 22 26 28 36 39 41 39 40 41 35 45 40 43 46 45 42 38 35 37 41 35 33 41 39 32
45 43 51 51 66 73 80 63 56 55 59 54 51 43 35 28 26 25 30 42 41 39 51 51 51 47 46 35 43 46 52 57 59 54 52 50 53 52 43 36 28 24 19
41 47 47 50 60 75 64 54 52 58 54 46 39 30 24 25 26 30 33 39 51 53 55 60 56 51 43 39 44 54 61 66 66 63 62 62 54 49 40 34 26 27 28
40 45 47 47 64 64 56 49 50 52 45 37 30 25 25 28 32 39 49 56 58 64 68 70 74 71 68 64 63 64 68 69 72 72 65 61 49 47 40 38 27 21 21
39 46 45 47 62 56 49 45 44 44 37 28 27 27 28 32 38 45 52 62 66 74 81 84 87 85 84 85 83 83 79 75 76 67 62 58 57 52 41 27 26 29 23
38 50 44 52 56 51 45 40 36 31 35 28 26 29 33 36 43 47 55 62 70 78 88 90 85 89 88 85 83 83 77 70 69 64 57 53 47 41 34 29 30 30 28
37 48 46 51 47 45 43 42 35 25 31 35 39 44 50 50 52 57 66 70 77 78 78 75 74 77 80 78 76 71 60 56 55 50 49 45 38 35 34 33 32 29 29
42 39 43 43 40 39 41 40 35 35 43 54 58 61 68 72 75 76 76 72 72 73 74 76 81 79 76 70 65 60 52 51 52 48 48 46 41 40 36 33 34 32 32
Wind_Direction_500mb
328 329 332 317 318 324 328 327 329 325 322 325 326 305 290 281 268 256 248 249 249 248 257 253 256 254 257 257 241 253 245 248 246 256 257 257 258 254 261 254 246 247 249
319 319 317 321 325 325 327 323 325 323 323 323 311 320 319 312 308 307 299 275 270 262 252 248 252 246 249 251 248 243 246 241 245 246 247 261 258 257 257 253 250 248 248
317 328 331 327 335 332 325 325 322 325 322 322 313 304 295 292 291 295 292 297 294 285 273 265 259 248 246 248 250 248 244 248 244 241 243 250 249 258 258 259 253 248 251
335 342 329 339 335 328 328 322 327 329 325 317 312 311 312 310 301 289 282 277 274 276 273 270 262 273 260 253 249 245 249 243 246 243 243 249 257 262 276 269 240 241 251
339 332 339 332 327 329 324 324 326 330 324 320 315 311 305 312 309 308 300 287 271 268 267 273 272 257 261 263 257 252 247 246 247 246 242 239 249 255 255 263 269 265 261
331 341 340 326 332 327 316 324 324 326 327 324 316 313 309 309 306 303 300 299 296 287 278 268 269 279 272 262 263 258 252 245 244 243 244 239 242 247 253 254 261 267 277
340 342 333 338 334 320 324 321 323 325 326 320 317 309 302 296 297 298 296 294 295 286 270 267 271 268 267 271 265 266 258 249 246 242 244 243 242 251 250 257 263 257 260
337 335 336 338 324 322 321 328 324 323 324 320 316 310 306 303 297 293 286 284 282 278 277 264 255 260 260 261 262 266 261 256 251 248 245 246 246 253 254 252 254 256 256
338 334 339 328 326 330 334 333 332 330 326 319 312 302 296 294 294 292 290 284 279 281 281 280 275 262 265 264 265 259 264 261 257 250 249 245 247 251 252 251 249 251 261
335 346 334 327 335 329 327 330 336 331 320 309 301 301 305 303 302 298 295 293 286 276 273 269 266 268 260 261 256 263 256 262 258 255 250 246 248 247 248 254 252 256 259
340 335 324 332 339 336 335 332 334 321 316 308 307 310 305 301 301 298 294 290 289 284 277 275 273 271 263 265 264 255 260 257 260 256 250 244 242 242 241 240 255 255 253
335 334 342 341 334 334 337 335 324 313 313 311 313 311 309 308 307 305 303 300 292 282 275 267 268 267 264 259 257 257 251 258 257 258 250 244 238 237 237 239 245 251 252
335 344 343 337 336 337 334 328 315 315 313 319 317 315 314 310 308 306 300 294 290 284 277 271 267 267 263 259 253 250 250 252 255 257 252 243 230 227 237 243 252 245 234
345 341 338 338 339 338 331 320 314 319 319 318 315 317 318 316 309 306 305 299 295 289 279 274 263 261 260 255 249 246 247 249 252 247 243 235 229 229 237 243 240 224 211
338 340 344 342 342 334 328 319 316 322 325 319 318 318 320 319 317 314 311 305 301 301 294 275 262 255 249 244 248 239 244 243 232 232 228 228 223 233 225 232 209 200 197
338 345 344 345 339 333 322 319 320 328 327 325 323 323 326 324 322 317 315 312 308 308 299 273 258 246 246 250 241 237 227 226 213 217 204 216 205 220 213 196 188 183 176
349 350 347 347 340 327 318 323 331 332 331 328 330 332 330 333 335 329 326 318 311 313 303 276 240 247 251 245 243 234 212 193 189 190 188 189 178 186 187 174 165 173 188
356 354 354 343 336 320 324 331 334 337 334 335 335 338 340 344 343 343 352 11 37 111 116 127 157 195 178 199 224 195 181 177 165 156 155 161 158 153 161 161 150 118 87
358 358 347 344 325 323 334 335 341 348 342 343 346 347 352 355 9 34 63 79 93 102 105 114 124 125 130 156 169 181 165 149 140 139 138 139 139 134 122 109 94 91 96
356 354 351 341 324 331 337 344 349 349 346 351 350 357 1 18 38 57 77 93 95 100 108 113 112 115 118 138 141 141 141 135 127 122 120 118 112 101 94 92 87 91 104
356 349 350 344 330 336 346 352 355 352 351 354 359 7 24 45 64 83 91 96 98 104 100 96 95 95 101 115 126 127 125 121 118 112 106 98 95 93 90 85 94 93 83
7 356 351 344 333 347 354 358 359 353 0 13 17 33 58 77 90 98 101 100 100 99 97 96 94 92 94 96 99 103 105 106 104 94 89 86 88 90 94 98 87 80 76
6 355 351 342 347 357 3 7 2 5 21 36 47 60 80 91 101 106 105 101 101 101 100 98 97 96 95 95 94 93 90 88 89 86 84 83 82 78 82 89 98 88 82
2 344 350 349 356 7 12 16 8 29 45 45 54 73 81 94 104 108 108 107 105 104 101 97 94 97 98 94 91 90 89 85 81 78 77 77 74 72 68 77 74 64 65
6 347 348 357 6 14 23 21 21 44 61 65 76 81 86 90 92 94 98 102 103 102 102 101 100 97 93 89 87 87 86 82 79 75 72 75 76 76 69 63 59 70 65
356 355 353 7 18 27 38 35 53 65 79 80 77 85 90 93 95 94 93 94 94 92 91 92 92 90 89 82 77 75 78 79 80 82 78 74 70 66 61 58 57 53 57
Wind_Speed_850mb
13 19 23 27 26 34 42 46 50 49 52 48 43 38 42 45 47 50 49 41 39 50 56 65 47 53 56 57 52 50 56 59 54 50 57 65 62 65 51 60 61 60 63
14 23 27 28 31 33 42 39 46 49 52 52 49 44 49 49 50 51 47 54 60 52 47 51 67 57 53 63 70 62 52 57 58 61 59 50 60 66 68 70 72 62 65
12 24 30 26 29 38 36 46 38 44 52 50 44 47 49 50 44 38 43 44 45 44 47 53 56 69 76 64 60 56 65 70 65 59 56 32 46 57 57 59 77 77 65
22 28 33 35 40 38 41 30 41 50 52 51 49 57 60 61 52 53 53 49 51 51 57 54 40 53 68 73 81 66 65 66 68 67 59 68 62 55 43 36 37 61 71
25 30 31 37 37 36 40 39 45 49 46 53 51 55 56 64 65 72 65 57 65 60 60 57 62 67 53 68 70 78 67 67 68 68 69 72 59 67 71 61 66 59 56
30 30 35 38 32 43 39 42 42 50 53 47 50 54 57 54 62 73 78 80 66 58 54 57 52 56 59 69 67 74 74 75 66 74 65 64 65 68 65 63 66 55 61
34 42 44 40 47 42 40 40 45 48 43 55 66 62 66 73 78 75 71 76 75 66 59 52 54 52 50 56 61 73 74 76 78 75 74 68 71 68 64 59 68 56 46
34 36 39 46 47 46 39 38 42 44 57 66 65 59 64 68 69 75 74 76 79 82 79 75 73 72 61 51 52 56 68 74 79 81 83 76 77 75 67 61 54 53 52
34 41 38 41 44 43 43 43 42 50 57 63 64 71 76 83 90 85 83 86 88 84 81 73 75 76 66 64 61 70 59 70 74 82 86 79 75 70 63 58 60 58 54
37 39 46 45 42 45 49 48 56 57 64 72 83 92 85 77 80 80 82 82 83 86 85 81 78 70 77 73 67 55 74 65 69 76 84 81 73 62 58 56 64 58 53
40 42 43 44 49 48 47 54 58 69 76 79 89 87 82 80 81 81 76 74 75 73 73 70 72 74 69 66 66 74 62 70 71 71 76 78 66 57 52 47 52 57 49
46 45 51 56 59 51 51 57 66 76 75 80 91 83 81 81 84 75 71 68 67 69 73 74 78 75 69 64 62 63 71 69 75 71 69 72 61 55 55 53 59 50 42
43 45 51 55 52 54 57 59 66 76 80 89 87 85 81 79 70 72 73 71 71 70 68 69 71 73 71 69 64 61 64 67 62 63 61 63 58 56 55 58 48 38 39
43 49 51 50 56 55 58 64 78 86 91 85 83 83 78 69 69 68 65 62 60 65 65 68 67 65 66 61 59 59 61 60 51 48 54 55 58 55 55 41 34 28 29
50 50 51 57 58 66 68 74 72 88 85 80 75 74 70 65 64 62 57 58 53 54 48 44 45 49 48 47 52 49 45 53 52 53 51 53 49 52 36 34 34 33 31
51 51 55 54 57 62 74 66 83 97 77 69 71 65 61 62 59 55 52 40 39 39 28 21 20 22 35 41 38 47 40 43 46 43 44 38 30 28 35 36 35 33 31
47 52 52 51 58 59 61 82 98 79 61 67 62 58 59 58 51 43 36 26 22 21 21 14 21 37 36 35 35 40 38 43 43 39 37 29 28 30 33 39 31 20 17
49 47 48 52 51 59 77 95 81 62 58 57 61 55 57 50 42 29 19 11 5 8 13 13 16 22 28 40 25 35 36 39 41 42 38 33 36 32 28 27 24 20 32
50 44 47 50 54 72 86 82 63 55 58 59 58 51 47 40 27 21 22 26 28 36 39 41 39 40 41 35 45 40 43 46 45 42 38 35 37 41 35 33 41 39 32
45 43 51 51 66 73 80 63 56 55 59 54 51 43 35 28 26 25 30 42 41 39 51 51 51 47 46 35 43 46 52 57 59 54 52 50 53 52 43 36 28 24 19
41 47 47 50 60 75 64 54 52 58 54 46 39 30 24 25 26 30 33 39 51 53 55 60 56 51 43 39 44 54 61 66 66 63 62 62 54 49 40 34 26 27 28
40 45 47 47 64 64 56 49 50 52 45 37 30 25 25 28 32 39 49 56 58 64 68 70 74 71 68 64 63 64 68 69 72 72 65 61 49 47 40 38 27 21 21
39 46 45 47 62 56 49 45 44 44 37 28 27 27 28 32 38 45 52 62 66 74 81 84 87 85 84 85 83 83 79 75 76 67 62 58 57 52 41 27 26 29 23
38 50 44 52 56 51 45 40 36 31 35 28 26 29 33 36 43 47 55 62 70 78 88 90 85 89 88 85 83 83 77 70 69 64 57 53 47 41 34 29 30 30 28
37 48 46 51 47 45 43 42 35 25 31 35 39 44 50 50 52 57 66 70 77 78 78 75 74 77 80 78 76 71 60 56 55 50 49 45 38 35 34 33 32 29 29
42 39 43 43 40 39 41 40 35 35 43 54 58 61 68 72 75 76 76 72 72 73 74 76 81 79 76 70 65 60 52 51 52 48 48 46 41 40 36 33 34 32 32
Wind_Direction_850mb
328 329 332 317 318 324 328 327 329 325 322 325 326 305 290 281 268 256 248 249 249 248 257 253 256 254 257 257 241 253 245 248 246 256 257 257 258 254 261 254 246 247 249
319 319 317 321 325 325 327 323 325 323 323 323 311 320 319 312 308 307 299 275 270 262 252 248 252 246 249 251 248 243 246 241 245 246 247 261 258 257 257 253 250 248 248
317 328 331 327 335 332 325 325 322 325 322 322 313 304 295 292 291 295 292 297 294 285 273 265 259 248 246 248 250 248 244 248 244 241 243 250 249 258 258 259 253 248 251
335 342 329 339 335 328 328 322 327 329 325 317 312 311 312 310 301 289 282 277 274 276 273 270 262 273 260 253 249 245 249 243 246 243 243 249 257 262 276 269 240 241 251
339 332 339 332 327 329 324 324 326 330 324 320 315 311 305 312 309 308 300 287 271 268 267 273 272 257 261 263 257 252 247 246 247 246 242 239 249 255 255 263 269 265 261
331 341 340 326 332 327 316 324 324 326 327 324 316 313 309 309 306 303 300 299 296 287 278 268 269 279 272 262 263 258 252 245 244 243 244 239 242 247 253 254 261 267 277
340 342 333 338 334 320 324 321 323 325 326 320 317 309 302 296 297 298 296 294 295 286 270 267 271 268 267 271 265 266 258 249 246 242 244 243 242 251 250 257 263 257 260
337 335 336 338 324 322 321 328 324 323 324 320 316 310 306 303 297 293 286 284 282 278 277 264 255 260 260 261 262 266 261 256 251 248 245 246 246 253 254 252 254 256 256
338 334 339 328 326 330 334 333 332 330 326 319 312 302 296 294 294 292 290 284 279 281 281 280 275 262 265 264 265 259 264 261 257 250 249 245 247 251 252 251 249 251 261
335 346 334 327 335 329 327 330 336 331 320 309 301 301 305 303 302 298 295 293 286 276 273 269 266 268 260 261 256 263 256 262 258 255 250 246 248 247 248 254 252 256 259
340 335 324 332 339 336 335 332 334 321 316 308 307 310 305 301 301 298 294 290 289 284 277 275 273 271 263 265 264 255 260 257 260 256 250 244 242 242 241 240 255 255 253
335 334 342 341 334 334 337 335 324 313 313 311 313 311 309 308 307 305 303 300 292 282 275 267 268 267 264 259 257 257 251 258 257 258 250 244 238 237 237 239 245 251 252
335 344 343 337 336 337 334 328 315 315 313 319 317 315 314 310 308 306 300 294 290 284 277 271 267 267 263 259 253 250 250 252 255 257 252 243 230 227 237 243 252 245 234
345 341 338 338 339 338 331 320 314 319 319 318 315 317 318 316 309 306 305 299 295 289 279 274 263 261 260 255 249 246 247 249 252 247 243 235 229 229 237 243 240 224 211
338 340 344 342 342 334 328 319 316 322 325 319 318 318 320 319 317 314 311 305 301 301 294 275 262 255 249 244 248 239 244 243 232 232 228 228 223 233 225 232 209 200 197
338 345 344 345 339 333 322 319 320 328 327 325 323 323 326 324 322 317 315 312 308 308 299 273 258 246 246 250 241 237 227 226 213 217 204 216 205 220 213 196 188 183 176
349 350 347 347 340 327 318 323 331 332 331 328 330 332 330 333 335 329 326 318 311 313 303 276 240 247 251 245 243 234 212 193 189 190 188 189 178 186 187 174 165 173 188
356 354 354 343 336 320 324 331 334 337 334 335 335 338 340 344 343 343 352 11 37 111 116 127 157 195 178 199 224 195 181 177 165 156 155 161 158 153 161 161 150 118 87
358 358 347 344 325 323 334 335 341 348 342 343 346 347 352 355 9 34 63 79 93 102 105 114 124 125 130 156 169 181 165 149 140 139 138 139 139 134 122 109 94 91 96
356 354 351 341 324 331 337 344 349 349 346 351 350 357 1 18 38 57 77 93 95 100 108 113 112 115 118 138 141 141 141 135 127 122 120 118 112 101 94 92 87 91 104
356 349 350 344 330 336 346 352 355 352 351 354 359 7 24 45 64 83 91 96 98 104 100 96 95 95 101 115 126 127 125 121 118 112 106 98 95 93 90 85 94 93 83
7 356 351 344 333 347 354 358 359 353 0 13 17 33 58 77 90 98 101 100 100 99 97 96 94 92 94 96 99 103 105 106 104 94 89 86 88 90 94 98 87 80 76
6 355 351 342 347 357 3 7 2 5 21 36 47 60 80 91 101 106 105 101 101 101 100 98 97 96 95 95 94 93 90 88 89 86 84 83 82 78 82 89 98 88 82
2 344 350 349 356 7 12 16 8 29 45 45 54 73 81 94 104 108 108 107 105 104 101 97 94 97 98 94 91 90 89 85 81 78 77 77 74 72 68 77 74 64 65
6 347 348 357 6 14 23 21 21 44 61 65 76 81 86 90 92 94 98 102 103 102 102 101 100 97 93 89 87 87 86 82 79 75 72 75 76 76 69 63 59 70 65
356 355 353 7 18 27 38 35 53 65 79 80 77 85 90 93 95 94 93 94 94 92 91 92 92 90 89 82 77 75 78 79 80 82 78 74 70 66 61 58 57 53 57